This is the latest recevied weather packets stored in our database for station/object W0AKO. If no packets are shown the sender has not sent any weather packets the latest 10 day(s).
| Time | Temp. | Humidity | Pressure | Rain* | Wind** | Luminosity | Snow |
|---|---|---|---|---|---|---|---|
| 1778002980 | 21.11° C | 10% | 1012.9 hPa | 0 mm | - | 870 W/m² | - |
| 1778002676 | 20.56° C | 10% | 1012.7 hPa | 0 mm | - | 776 W/m² | - |
| 1778002372 | 20.56° C | 10% | 1012.9 hPa | 0 mm | - | 749 W/m² | - |
| 1778002069 | 18.89° C | 10% | 1012.7 hPa | 0 mm | - | 717 W/m² | - |
| 1778001767 | 18.89° C | 10% | 1013 hPa | 0 mm | - | 755 W/m² | - |
| 1778001467 | 18.89° C | 10% | 1012.6 hPa | 0 mm | - | 771 W/m² | - |
| 1778001164 | 18.89° C | 10% | 1012.8 hPa | 0 mm | - | 737 W/m² | - |
| 1778000860 | 18.89° C | 10% | 1012.9 hPa | 0 mm | - | 691 W/m² | - |
| 1778000558 | 18.89° C | 10% | 1012.9 hPa | 0 mm | - | 655 W/m² | - |
| 1778000253 | 18.89° C | 10% | 1012.9 hPa | 0 mm | - | 652 W/m² | - |
| 1777999949 | 18.33° C | 10% | 1012.9 hPa | 0 mm | - | 642 W/m² | - |
| 1777999644 | 18.89° C | 10% | 1012.8 hPa | 0 mm | - | 598 W/m² | - |
| 1777999342 | 18.33° C | 10% | 1012.7 hPa | 0 mm | - | 580 W/m² | - |
| 1777999040 | 18.33° C | 10% | 1012.9 hPa | 0 mm | - | 572 W/m² | - |
| 1777998738 | 17.78° C | 10% | 1012.8 hPa | 0 mm | - | 557 W/m² | - |
| 1777998435 | 17.78° C | 10% | 1013 hPa | 0 mm | - | 517 W/m² | - |
| 1777998132 | 17.78° C | 10% | 1012.8 hPa | 0 mm | - | 476 W/m² | - |
| 1777997829 | 17.78° C | 10% | 1012.9 hPa | 0 mm | - | 435 W/m² | - |
| 1777997527 | 17.78° C | 10% | 1013 hPa | 0 mm | - | 423 W/m² | - |
| 1777997224 | 18.89° C | 10% | 1013.1 hPa | 0 mm | - | 390 W/m² | - |
| 1777996922 | 18.33° C | 10% | 1013.1 hPa | 0 mm | - | 370 W/m² | - |
| 1777996617 | 17.78° C | 10% | 1013 hPa | 0 mm | - | 355 W/m² | - |
| 1777996314 | 17.22° C | 10% | 1012.9 hPa | 0 mm | - | 342 W/m² | - |
| 1777996010 | 17.22° C | 10% | 1013 hPa | 0 mm | - | 326 W/m² | - |
| 1777995706 | 17.78° C | 10% | 1013.1 hPa | 0 mm | - | 308 W/m² | - |
* Rain latest hour (hover to see other rain measurements)
** Current wind speed in m/s (hover to see current wind gust speed)